"read_dt","SO2 (ppb)","flags","PMT voltage (V)","lamp voltage (V)","lamp intensity (Hz)","internal temp (C)","react chamber temp (C)","sample flow (l/min)","pres (mmHg)","SO2 bkg (ppb)","SO2 coefficient"
2016-09-29 00:00:00,1476E-3,5C000000,-0724,0828,12173,031.5,045.6,0.448,740.2,01.18,0.508
2016-09-29 00:01:00,1658E-3,5C000000,-0723,0827,12170,031.5,045.6,0.448,740.2,01.18,0.508
2016-09-29 00:02:00,1581E-3,5C000000,-0723,0827,12261,031.5,045.6,0.448,740.2,01.18,0.508
2016-09-29 00:03:00,1619E-3,5C000000,-0723,0827,12344,031.5,045.6,0.448,740.2,01.18,0.508
2016-09-29 00:04:00,1477E-3,5C000000,-0723,0828,12206,031.5,045.6,0.448,740.3,01.18,0.508
2016-09-29 00:05:00,1691E-3,5C000000,-0723,0827,12116,031.5,045.6,0.448,740.1,01.18,0.508
2016-09-29 00:06:00,1588E-3,5C000000,-0724,0827,12342,031.5,045.6,0.448,740.2,01.18,0.508
2016-09-29 00:07:00,1638E-3,5C000000,-0724,0827,12056,031.5,045.6,0.448,740.2,01.18,0.508
2016-09-29 00:08:00,1662E-3,5C000000,-0723,0828,12304,031.5,045.6,0.448,740.1,01.18,0.508
2016-09-29 00:09:00,1583E-3,5C000000,-0723,0829,12228,031.5,045.6,0.448,740.3,01.18,0.508
2016-09-29 00:10:00,1713E-3,5C000000,-0723,0827,12264,031.5,045.6,0.448,740.2,01.18,0.508
2016-09-29 00:11:00,1648E-3,5C000000,-0723,0827,12284,031.5,045.6,0.447,740.2,01.18,0.508
2016-09-29 00:12:00,1527E-3,5C000000,-0724,0829,12258,031.5,045.6,0.448,740.3,01.18,0.508
2016-09-29 00:13:00,1616E-3,5C000000,-0724,0827,12318,031.5,045.6,0.448,740.2,01.18,0.508
2016-09-29 00:14:00,1476E-3,5C000000,-0723,0828,12339,031.5,045.6,0.448,740.2,01.18,0.508
2016-09-29 00:15:00,1522E-3,5C000000,-0724,0827,12160,031.5,045.6,0.448,740.2,01.18,0.508
2016-09-29 00:16:00,1564E-3,5C000000,-0724,0827,12209,031.5,045.6,0.448,740.1,01.18,0.508
2016-09-29 00:17:00,1688E-3,5C000000,-0723,0828,12107,031.5,045.6,0.448,740.0,01.18,0.508
2016-09-29 00:18:00,1631E-3,5C000000,-0724,0827,12295,031.5,045.6,0.447,740.1,01.18,0.508
2016-09-29 00:19:00,1542E-3,5C000000,-0723,0828,12221,031.5,045.6,0.447,740.2,01.18,0.508
2016-09-29 00:20:00,1544E-3,5C000000,-0724,0828,12315,031.5,045.6,0.448,740.2,01.18,0.508
2016-09-29 00:21:00,1502E-3,5C000000,-0723,0827,12078,031.5,045.6,0.448,740.2,01.18,0.508
2016-09-29 00:22:00,1584E-3,5C000000,-0724,0828,12176,031.5,045.6,0.448,740.2,01.18,0.508
2016-09-29 00:23:00,1555E-3,5C000000,-0724,0826,12211,031.5,045.6,0.448,740.2,01.18,0.508
2016-09-29 00:24:00,1684E-3,5C000000,-0724,0828,12229,031.6,045.6,0.448,740.1,01.18,0.508
2016-09-29 00:25:00,1485E-3,5C000000,-0724,0827,12128,031.6,045.6,0.448,740.2,01.18,0.508
2016-09-29 00:26:00,1444E-3,5C000000,-0724,0826,12173,031.6,045.6,0.448,740.1,01.18,0.508
2016-09-29 00:27:00,1488E-3,5C000000,-0724,0828,12302,031.6,045.6,0.447,740.0,01.18,0.508
2016-09-29 00:28:00,1618E-3,5C000000,-0723,0827,12189,031.6,045.6,0.448,740.0,01.18,0.508
2016-09-29 00:29:00,1673E-3,5C000000,-0723,0828,12221,031.6,045.6,0.448,740.1,01.18,0.508
2016-09-29 00:30:00,1372E-3,5C000000,-0723,0828,12235,031.6,045.6,0.448,740.1,01.18,0.508
2016-09-29 00:31:00,1522E-3,5C000000,-0724,0827,12278,031.6,045.6,0.448,740.2,01.18,0.508
2016-09-29 00:32:00,1489E-3,5C000000,-0724,0827,12083,031.6,045.6,0.448,740.2,01.18,0.508
2016-09-29 00:33:00,1660E-3,5C000000,-0724,0826,12227,031.6,045.6,0.448,740.0,01.18,0.508
2016-09-29 00:34:00,1540E-3,5C000000,-0723,0827,12400,031.6,045.6,0.448,740.1,01.18,0.508
2016-09-29 00:35:00,1518E-3,5C000000,-0723,0828,12353,031.6,045.6,0.447,740.2,01.18,0.508
2016-09-29 00:36:00,1604E-3,5C000000,-0723,0828,12159,031.6,045.6,0.448,740.3,01.18,0.508
2016-09-29 00:37:00,1529E-3,5C000000,-0724,0828,12216,031.6,045.6,0.448,740.1,01.18,0.508
2016-09-29 00:38:00,1587E-3,5C000000,-0723,0826,12091,031.6,045.6,0.448,740.2,01.18,0.508
2016-09-29 00:39:00,1470E-3,5C000000,-0724,0828,12203,031.6,045.6,0.448,740.1,01.18,0.508
2016-09-29 00:40:00,1519E-3,5C000000,-0723,0827,12202,031.6,045.6,0.448,740.1,01.18,0.508
2016-09-29 00:41:00,1529E-3,5C000000,-0723,0828,12208,031.6,045.6,0.448,740.1,01.18,0.508
2016-09-29 00:42:00,1686E-3,5C000000,-0724,0828,12249,031.6,045.6,0.448,740.2,01.18,0.508
2016-09-29 00:43:00,1545E-3,5C000000,-0723,0827,12295,031.6,045.6,0.448,740.1,01.18,0.508
2016-09-29 00:44:00,1580E-3,5C000000,-0723,0827,12257,031.6,045.6,0.447,740.3,01.18,0.508
2016-09-29 00:45:00,1544E-3,5C000000,-0723,0827,12186,031.6,045.6,0.448,740.3,01.18,0.508
2016-09-29 00:46:00,1517E-3,5C000000,-0724,0827,12279,031.6,045.6,0.448,740.5,01.18,0.508
2016-09-29 00:47:00,1627E-3,5C000000,-0724,0827,12336,031.6,045.6,0.448,740.4,01.18,0.508
2016-09-29 00:48:00,1471E-3,5C000000,-0723,0826,12315,031.6,045.6,0.448,740.5,01.18,0.508
2016-09-29 00:49:00,1617E-3,5C000000,-0723,0828,12150,031.6,045.6,0.448,740.5,01.18,0.508
2016-09-29 00:50:00,1470E-3,5C000000,-0723,0827,12140,031.6,045.6,0.448,740.6,01.18,0.508
2016-09-29 00:51:00,1564E-3,5C000000,-0723,0827,12131,031.6,045.6,0.448,740.5,01.18,0.508
2016-09-29 00:52:00,1606E-3,5C000000,-0723,0827,12297,031.6,045.6,0.448,740.3,01.18,0.508
2016-09-29 00:53:00,1634E-3,5C000000,-0724,0827,12346,031.6,045.6,0.448,740.5,01.18,0.508
2016-09-29 00:54:00,1520E-3,5C000000,-0723,0826,12180,031.6,045.6,0.448,740.2,01.18,0.508
2016-09-29 00:55:00,1639E-3,5C000000,-0723,0827,12138,031.6,045.6,0.448,740.2,01.18,0.508
2016-09-29 00:56:00,1475E-3,5C000000,-0724,0827,12220,031.6,045.6,0.448,740.3,01.18,0.508
2016-09-29 00:57:00,1466E-3,5C000000,-0723,0827,12383,031.6,045.6,0.448,740.4,01.18,0.508
2016-09-29 00:58:00,1557E-3,5C000000,-0723,0828,12211,031.6,045.6,0.448,740.2,01.18,0.508
2016-09-29 00:59:00,1536E-3,5C000000,-0723,0828,12251,031.6,045.6,0.447,740.1,01.18,0.508
2016-09-29 01:00:00,1628E-3,5C000000,-0723,0828,11146,031.6,045.6,0.448,740.5,01.18,0.508
2016-09-29 01:01:00,1544E-3,5C000000,-0723,0827,12148,031.6,045.6,0.448,740.1,01.18,0.508
2016-09-29 01:02:00,1604E-3,5C000000,-0723,0826,12214,031.6,045.6,0.448,740.1,01.18,0.508
2016-09-29 01:03:00,1555E-3,5C000000,-0723,0828,11098,031.6,045.6,0.448,740.3,01.18,0.508
2016-09-29 01:04:00,1695E-3,5C000000,-0723,0827,12259,031.6,045.6,0.448,740.4,01.18,0.508
2016-09-29 01:05:00,1630E-3,5C000000,-0723,0827,12319,031.6,045.6,0.448,740.4,01.18,0.508
2016-09-29 01:06:00,1484E-3,5C000000,-0724,0827,12267,031.6,045.6,0.448,740.2,01.18,0.508
2016-09-29 01:07:00,1449E-3,5C000000,-0723,0828,12314,031.6,045.6,0.447,740.4,01.18,0.508
2016-09-29 01:08:00,1563E-3,5C000000,-0724,0827,12154,031.6,045.6,0.447,740.1,01.18,0.508
2016-09-29 01:09:00,1560E-3,5C000000,-0723,0827,12248,031.6,045.6,0.448,740.6,01.18,0.508
2016-09-29 01:10:00,1596E-3,5C000000,-0724,0827,12344,031.6,045.6,0.448,740.6,01.18,0.508
2016-09-29 01:11:00,1633E-3,5C000000,-0723,0827,12221,031.6,045.6,0.448,740.5,01.18,0.508
2016-09-29 01:12:00,1574E-3,5C000000,-0724,0828,12149,031.6,045.6,0.448,740.5,01.18,0.508
2016-09-29 01:13:00,1670E-3,5C000000,-0724,0827,12257,031.6,045.6,0.448,740.5,01.18,0.508
2016-09-29 01:14:00,1413E-3,5C000000,-0724,0827,12296,031.6,045.6,0.448,740.6,01.18,0.508
2016-09-29 01:15:00,1623E-3,5C000000,-0724,0827,12172,031.6,045.6,0.448,740.5,01.18,0.508
2016-09-29 01:16:00,1666E-3,5C000000,-0724,0828,12278,031.6,045.6,0.447,740.5,01.18,0.508
2016-09-29 01:17:00,1600E-3,5C000000,-0723,0827,12180,031.6,045.6,0.447,740.5,01.18,0.508
2016-09-29 01:18:00,1559E-3,5C000000,-0723,0827,12281,031.6,045.6,0.448,740.6,01.18,0.508
2016-09-29 01:19:00,1626E-3,5C000000,-0723,0827,12277,031.6,045.6,0.448,740.6,01.18,0.508
2016-09-29 01:20:00,1497E-3,5C000000,-0723,0827,12137,031.6,045.6,0.448,740.5,01.18,0.508
2016-09-29 01:21:00,1532E-3,5C000000,-0723,0827,12369,031.6,045.6,0.448,740.6,01.18,0.508
2016-09-29 01:22:00,1542E-3,5C000000,-0724,0828,12173,031.6,045.5,0.448,740.6,01.18,0.508
2016-09-29 01:23:00,1528E-3,5C000000,-0723,0828,12187,031.6,045.6,0.448,740.6,01.18,0.508
2016-09-29 01:24:00,1589E-3,5C000000,-0723,0827,12221,031.6,045.6,0.448,740.6,01.18,0.508
2016-09-29 01:25:00,1490E-3,5C000000,-0723,0828,12193,031.6,045.6,0.447,740.6,01.18,0.508
2016-09-29 01:26:00,1462E-3,5C000000,-0723,0827,12251,031.6,045.6,0.448,740.6,01.18,0.508
2016-09-29 01:27:00,1445E-3,5C000000,-0723,0826,12163,031.6,045.6,0.448,740.6,01.18,0.508
2016-09-29 01:28:00,1486E-3,5C000000,-0724,0826,12255,031.6,045.6,0.448,740.6,01.18,0.508
2016-09-29 01:29:00,1605E-3,5C000000,-0723,0826,12165,031.6,045.6,0.448,740.6,01.18,0.508
2016-09-29 01:30:00,1670E-3,5C000000,-0724,0827,12277,031.7,045.6,0.448,740.6,01.18,0.508
2016-09-29 01:31:00,1628E-3,5C000000,-0724,0827,12350,031.6,045.6,0.448,740.6,01.18,0.508
2016-09-29 01:32:00,1542E-3,5C000000,-0723,0827,12124,031.7,045.6,0.448,740.6,01.18,0.508
2016-09-29 01:33:00,1438E-3,5C000000,-0723,0828,12322,031.7,045.6,0.448,740.6,01.18,0.508
2016-09-29 01:34:00,1632E-3,5C000000,-0723,0826,12423,031.7,045.6,0.447,740.6,01.18,0.508
2016-09-29 01:35:00,1593E-3,5C000000,-0723,0828,12306,031.7,045.6,0.448,740.6,01.18,0.508
2016-09-29 01:36:00,1554E-3,5C000000,-0724,0827,12296,031.7,045.6,0.448,740.6,01.18,0.508
2016-09-29 01:37:00,1542E-3,5C000000,-0723,0827,12298,031.7,045.6,0.448,740.6,01.18,0.508
2016-09-29 01:38:00,1606E-3,5C000000,-0723,0826,12256,031.7,045.6,0.448,740.6,01.18,0.508
2016-09-29 01:39:00,1479E-3,5C000000,-0724,0827,12198,031.7,045.6,0.448,740.6,01.18,0.508
2016-09-29 01:40:00,1443E-3,5C000000,-0723,0826,12163,031.7,045.6,0.448,740.6,01.18,0.508
2016-09-29 01:41:00,1547E-3,5C000000,-0723,0827,12203,031.7,045.6,0.448,740.6,01.18,0.508
2016-09-29 01:42:00,1607E-3,5C000000,-0723,0827,12222,031.7,045.6,0.448,740.6,01.18,0.508
2016-09-29 01:43:00,1475E-3,5C000000,-0723,0827,12266,031.7,045.6,0.447,740.6,01.18,0.508
2016-09-29 01:44:00,1580E-3,5C000000,-0723,0826,12127,031.7,045.6,0.447,740.6,01.18,0.508
2016-09-29 01:45:00,1598E-3,5C000000,-0723,0828,12303,031.7,045.6,0.447,740.6,01.18,0.508
2016-09-29 01:46:00,1544E-3,5C000000,-0723,0828,12175,031.7,045.6,0.448,740.6,01.18,0.508
2016-09-29 01:47:00,1624E-3,5C000000,-0723,0827,12101,031.7,045.6,0.448,740.6,01.18,0.508
2016-09-29 01:48:00,1627E-3,5C000000,-0723,0827,12250,031.7,045.6,0.448,740.6,01.18,0.508
2016-09-29 01:49:00,1545E-3,5C000000,-0723,0827,12089,031.7,045.6,0.448,740.6,01.18,0.508
2016-09-29 01:50:00,1647E-3,5C000000,-0723,0827,12138,031.7,045.6,0.448,740.6,01.18,0.508
2016-09-29 01:51:00,1508E-3,5C000000,-0724,0827,12207,031.7,045.6,0.447,740.6,01.18,0.508
2016-09-29 01:52:00,1657E-3,5C000000,-0723,0826,12265,031.7,045.6,0.447,740.6,01.18,0.508
2016-09-29 01:53:00,1532E-3,5C000000,-0723,0828,12240,031.7,045.6,0.448,740.6,01.18,0.508
2016-09-29 01:54:00,1565E-3,5C000000,-0723,0827,12094,031.7,045.6,0.448,740.6,01.18,0.508
2016-09-29 01:55:00,1814E-3,5C000000,-0724,0828,12219,031.7,045.6,0.448,740.6,01.18,0.508
2016-09-29 01:56:00,1615E-3,5C000000,-0723,0828,12213,031.7,045.6,0.448,740.6,01.18,0.508
2016-09-29 01:57:00,1621E-3,5C000000,-0723,0827,12159,031.7,045.6,0.448,740.6,01.18,0.508
2016-09-29 01:58:00,1522E-3,5C000000,-0723,0828,12262,031.7,045.6,0.448,740.6,01.18,0.508
2016-09-29 01:59:00,1556E-3,5C000000,-0723,0828,12183,031.7,045.6,0.448,740.6,01.18,0.508
2016-09-29 02:00:00,1472E-3,5C000000,-0723,0829,12221,031.7,045.6,0.447,740.6,01.18,0.508
2016-09-29 02:01:00,1688E-3,5C000000,-0724,0828,12203,031.7,045.6,0.447,740.6,01.18,0.508
2016-09-29 02:02:00,1482E-3,5C000000,-0723,0827,12206,031.7,045.6,0.448,740.6,01.18,0.508
2016-09-29 02:03:00,1709E-3,5C000000,-0723,0827,12261,031.7,045.6,0.448,740.6,01.18,0.508
2016-09-29 02:04:00,1457E-3,5C000000,-0723,0827,12090,031.7,045.6,0.448,740.6,01.18,0.508
2016-09-29 02:05:00,1580E-3,5C000000,-0723,0828,12122,031.7,045.6,0.448,740.6,01.18,0.508
2016-09-29 02:06:00,1459E-3,5C000000,-0723,0827,12294,031.7,045.6,0.448,740.6,01.18,0.508
2016-09-29 02:07:00,1623E-3,5C000000,-0723,0827,12214,031.7,045.6,0.448,740.6,01.18,0.508
2016-09-29 02:08:00,1687E-3,5C000000,-0723,0828,12409,031.7,045.6,0.447,740.6,01.18,0.508
2016-09-29 02:09:00,1440E-3,5C000000,-0723,0828,12155,031.7,045.6,0.447,740.6,01.18,0.508
2016-09-29 02:10:00,1589E-3,5C000000,-0724,0827,12291,031.7,045.6,0.448,740.6,01.18,0.508
2016-09-29 02:11:00,1626E-3,5C000000,-0723,0828,12236,031.7,045.6,0.448,740.6,01.18,0.508
2016-09-29 02:12:00,1471E-3,5C000000,-0723,0828,12266,031.7,045.6,0.448,740.6,01.18,0.508
2016-09-29 02:13:00,1580E-3,5C000000,-0723,0828,12157,031.7,045.6,0.448,740.6,01.18,0.508
2016-09-29 02:14:00,1502E-3,5C000000,-0723,0827,12142,031.7,045.6,0.448,740.6,01.18,0.508
2016-09-29 02:15:00,1625E-3,5C000000,-0723,0828,12230,031.7,045.6,0.448,740.6,01.18,0.508
2016-09-29 02:16:00,1517E-3,5C000000,-0723,0828,12132,031.7,045.6,0.447,740.6,01.18,0.508
2016-09-29 02:17:00,1539E-3,5C000000,-0723,0828,12351,031.6,045.6,0.447,740.6,01.18,0.508
2016-09-29 02:18:00,1669E-3,5C000000,-0723,0827,12211,031.6,045.6,0.447,740.6,01.18,0.508
2016-09-29 02:19:00,1657E-3,5C000000,-0723,0827,12252,031.5,045.6,0.447,740.6,01.18,0.508
2016-09-29 02:20:00,1551E-3,5C000000,-0723,0827,11784,031.5,045.6,0.447,740.6,01.18,0.508
2016-09-29 02:21:00,1580E-3,5C000000,-0723,0827,12194,031.5,045.6,0.447,740.6,01.18,0.508
2016-09-29 02:22:00,1560E-3,5C000000,-0723,0827,12195,031.4,045.6,0.447,740.6,01.18,0.508
2016-09-29 02:23:00,1627E-3,5C000000,-0723,0828,12190,031.3,045.6,0.447,740.6,01.18,0.508
2016-09-29 02:24:00,1578E-3,5C000000,-0724,0828,12209,031.3,045.6,0.447,740.6,01.18,0.508
2016-09-29 02:25:00,1559E-3,5C000000,-0723,0827,12318,031.3,045.6,0.447,740.6,01.18,0.508
2016-09-29 02:26:00,1577E-3,5C000000,-0724,0827,12364,031.2,045.6,0.447,740.6,01.18,0.508
2016-09-29 02:27:00,1413E-3,5C000000,-0723,0827,12215,031.2,045.6,0.447,740.6,01.18,0.508
2016-09-29 02:28:00,1593E-3,5C000000,-0723,0827,12375,031.2,045.6,0.448,740.6,01.18,0.508
2016-09-29 02:29:00,1645E-3,5C000000,-0723,0827,12385,031.1,045.6,0.448,740.6,01.18,0.508
2016-09-29 02:30:00,1691E-3,5C000000,-0723,0827,12111,031.1,045.6,0.448,740.6,01.18,0.508
2016-09-29 02:31:00,1560E-3,5C000000,-0724,0827,12333,031.1,045.6,0.448,740.6,01.18,0.508
2016-09-29 02:32:00,1599E-3,5C000000,-0724,0827,12154,031.1,045.6,0.448,740.6,01.18,0.508
2016-09-29 02:33:00,1569E-3,5C000000,-0724,0827,12185,031.0,045.5,0.448,740.6,01.18,0.508
2016-09-29 02:34:00,1657E-3,5C000000,-0724,0827,12148,031.0,045.5,0.448,740.6,01.18,0.508
2016-09-29 02:35:00,1518E-3,5C000000,-0724,0827,12179,031.0,045.6,0.448,740.6,01.18,0.508
2016-09-29 02:36:00,1645E-3,5C000000,-0724,0827,12090,031.0,045.6,0.448,740.6,01.18,0.508
2016-09-29 02:37:00,1512E-3,5C000000,-0724,0826,12204,031.0,045.5,0.449,740.6,01.18,0.508
2016-09-29 02:38:00,1495E-3,5C000000,-0724,0827,12291,030.9,045.5,0.449,740.6,01.18,0.508
2016-09-29 02:39:00,1688E-3,5C000000,-0724,0828,12374,030.9,045.6,0.449,740.6,01.18,0.508
2016-09-29 02:40:00,1541E-3,5C000000,-0724,0827,12095,030.9,045.6,0.448,740.6,01.18,0.508
2016-09-29 02:41:00,1709E-3,5C000000,-0724,0827,12189,030.8,045.5,0.448,740.6,01.18,0.508
2016-09-29 02:42:00,1560E-3,5C000000,-0724,0827,12198,030.8,045.5,0.448,740.6,01.18,0.508
2016-09-29 02:43:00,1572E-3,5C000000,-0724,0827,12185,030.8,045.5,0.448,740.6,01.18,0.508
2016-09-29 02:44:00,1675E-3,5C000000,-0724,0827,12258,030.8,045.5,0.449,740.6,01.18,0.508
2016-09-29 02:45:00,1534E-3,5C000000,-0724,0826,12136,030.7,045.5,0.449,740.6,01.18,0.508
2016-09-29 02:46:00,1406E-3,5C000000,-0724,0827,12181,030.7,045.5,0.449,740.6,01.18,0.508
2016-09-29 02:47:00,1532E-3,5C000000,-0724,0827,11961,030.7,045.5,0.449,740.6,01.18,0.508
2016-09-29 02:48:00,1567E-3,5C000000,-0724,0828,12290,030.7,045.5,0.448,740.6,01.18,0.508
2016-09-29 02:49:00,1545E-3,5C000000,-0724,0826,12143,030.7,045.5,0.448,740.6,01.18,0.508
2016-09-29 02:50:00,1607E-3,5C000000,-0724,0827,12141,030.7,045.6,0.449,740.6,01.18,0.508
2016-09-29 02:51:00,1598E-3,5C000000,-0724,0826,12297,030.6,045.6,0.449,740.6,01.18,0.508
2016-09-29 02:52:00,1551E-3,5C000000,-0724,0827,12240,030.6,045.5,0.449,740.6,01.18,0.508
2016-09-29 02:53:00,1574E-3,5C000000,-0724,0826,12340,030.6,045.5,0.449,740.6,01.18,0.508
2016-09-29 02:54:00,1636E-3,5C000000,-0724,0826,12331,030.6,045.5,0.449,740.6,01.18,0.508
2016-09-29 02:55:00,1475E-3,5C000000,-0724,0827,12187,030.5,045.5,0.449,740.6,01.18,0.508
2016-09-29 02:56:00,1656E-3,5C000000,-0724,0826,12218,030.6,045.6,0.449,740.6,01.18,0.508
2016-09-29 02:57:00,1441E-3,5C000000,-0724,0827,12208,030.6,045.5,0.449,740.6,01.18,0.508
2016-09-29 02:58:00,1554E-3,5C000000,-0724,0826,12345,030.5,045.6,0.449,740.6,01.18,0.508
2016-09-29 02:59:00,1541E-3,5C000000,-0724,0826,12249,030.5,045.6,0.449,740.6,01.18,0.508
2016-09-29 03:00:00,1421E-3,5C000000,-0724,0826,12243,030.6,045.5,0.449,740.6,01.18,0.508
2016-09-29 03:01:00,1515E-3,5C000000,-0724,0827,12213,030.5,045.5,0.449,740.6,01.18,0.508
2016-09-29 03:02:00,1517E-3,5C000000,-0724,0826,12198,030.5,045.5,0.449,740.6,01.18,0.508
2016-09-29 03:03:00,1536E-3,5C000000,-0724,0826,12215,030.6,045.5,0.449,740.6,01.18,0.508
2016-09-29 03:04:00,1488E-3,5C000000,-0724,0827,12175,030.6,045.5,0.449,740.6,01.18,0.508
2016-09-29 03:05:00,1554E-3,5C000000,-0724,0828,12147,030.6,045.6,0.450,740.6,01.18,0.508
2016-09-29 03:06:00,1583E-3,5C000000,-0724,0827,12186,030.7,045.6,0.449,740.6,01.18,0.508
2016-09-29 03:07:00,1578E-3,5C000000,-0724,0827,12280,030.7,045.5,0.449,740.6,01.18,0.508
2016-09-29 03:08:00,1591E-3,5C000000,-0724,0827,12175,030.8,045.5,0.449,740.6,01.18,0.508
2016-09-29 03:09:00,1648E-3,5C000000,-0724,0827,12175,030.8,045.5,0.449,740.6,01.18,0.508
2016-09-29 03:10:00,1523E-3,5C000000,-0724,0828,12227,030.8,045.6,0.450,740.6,01.18,0.508
2016-09-29 03:11:00,1684E-3,5C000000,-0724,0827,12291,030.9,045.6,0.449,740.6,01.18,0.508
2016-09-29 03:12:00,1379E-3,5C000000,-0724,0827,12265,030.9,045.6,0.449,740.6,01.18,0.508
2016-09-29 03:13:00,1619E-3,5C000000,-0724,0827,12140,030.9,045.6,0.448,740.6,01.18,0.508
2016-09-29 03:14:00,1591E-3,5C000000,-0724,0828,12260,030.9,045.6,0.449,740.6,01.18,0.508
2016-09-29 03:15:00,1623E-3,5C000000,-0724,0827,12357,031.0,045.6,0.449,740.6,01.18,0.508
2016-09-29 03:16:00,1628E-3,5C000000,-0724,0828,12096,031.0,045.6,0.449,740.6,01.18,0.508
2016-09-29 03:17:00,1566E-3,5C000000,-0724,0828,12278,031.0,045.6,0.449,740.6,01.18,0.508
2016-09-29 03:18:00,1513E-3,5C000000,-0724,0828,12358,031.1,045.6,0.448,740.6,01.18,0.508
2016-09-29 03:19:00,1525E-3,5C000000,-0724,0827,12148,031.1,045.6,0.448,740.6,01.18,0.508
2016-09-29 03:20:00,1625E-3,5C000000,-0724,0827,12369,031.1,045.6,0.449,740.6,01.18,0.508
2016-09-29 03:21:00,1621E-3,5C000000,-0724,0828,11979,031.1,045.6,0.449,740.6,01.18,0.508
2016-09-29 03:22:00,1663E-3,5C000000,-0724,0827,12195,031.2,045.6,0.449,740.6,01.18,0.508
2016-09-29 03:23:00,1601E-3,5C000000,-0724,0828,12322,031.2,045.6,0.448,740.6,01.18,0.508
2016-09-29 03:24:00,1597E-3,5C000000,-0724,0828,12051,031.2,045.6,0.448,740.6,01.18,0.508
2016-09-29 03:25:00,1560E-3,5C000000,-0724,0828,12165,031.2,045.6,0.448,740.6,01.18,0.508
2016-09-29 03:26:00,1614E-3,5C000000,-0724,0828,12189,031.3,045.6,0.449,740.6,01.18,0.508
2016-09-29 03:27:00,1683E-3,5C000000,-0724,0828,12265,031.3,045.6,0.449,740.6,01.18,0.508
2016-09-29 03:28:00,1618E-3,5C000000,-0724,0827,12089,031.3,045.6,0.448,740.6,01.18,0.508
2016-09-29 03:29:00,1610E-3,5C000000,-0723,0827,12189,031.3,045.6,0.448,740.6,01.18,0.508
2016-09-29 03:30:00,1650E-3,5C000000,-0724,0827,12390,031.3,045.6,0.448,740.6,01.18,0.508
2016-09-29 03:31:00,1612E-3,5C000000,-0724,0827,12238,031.4,045.6,0.448,740.6,01.18,0.508
2016-09-29 03:32:00,1564E-3,5C000000,-0724,0827,12173,031.4,045.6,0.448,740.6,01.18,0.508
2016-09-29 03:33:00,1635E-3,5C000000,-0724,0828,12296,031.4,045.6,0.448,740.6,01.18,0.508
2016-09-29 03:34:00,1538E-3,5C000000,-0724,0827,12182,031.3,045.6,0.448,740.6,01.18,0.508
2016-09-29 03:35:00,1529E-3,5C000000,-0724,0827,12268,031.3,045.6,0.448,740.6,01.18,0.508
2016-09-29 03:36:00,1532E-3,5C000000,-0724,0828,12310,031.2,045.6,0.448,740.6,01.18,0.508
2016-09-29 03:37:00,1509E-3,5C000000,-0724,0827,12166,031.2,045.5,0.447,740.6,01.18,0.508
2016-09-29 03:38:00,1575E-3,5C000000,-0723,0828,12189,031.2,045.5,0.447,740.6,01.18,0.508
2016-09-29 03:39:00,1505E-3,5C000000,-0724,0827,12019,031.2,045.6,0.447,740.6,01.18,0.508
2016-09-29 03:40:00,1512E-3,5C000000,-0724,0828,12088,031.1,045.6,0.448,740.6,01.18,0.508
2016-09-29 03:41:00,1517E-3,5C000000,-0724,0828,12271,031.1,045.6,0.448,740.6,01.18,0.508
2016-09-29 03:42:00,1688E-3,5C000000,-0724,0827,12135,031.1,045.5,0.448,740.6,01.18,0.508
2016-09-29 03:43:00,1553E-3,5C000000,-0724,0828,12244,031.0,045.6,0.448,740.6,01.18,0.508
2016-09-29 03:44:00,1610E-3,5C000000,-0724,0826,12241,031.0,045.6,0.448,740.6,01.18,0.508
2016-09-29 03:45:00,1666E-3,5C000000,-0724,0827,12202,031.0,045.6,0.448,740.6,01.18,0.508
2016-09-29 03:46:00,1641E-3,5C000000,-0724,0827,12187,030.9,045.6,0.449,740.6,01.18,0.508
2016-09-29 03:47:00,1598E-3,5C000000,-0724,0828,12279,030.9,045.6,0.448,740.6,01.18,0.508
2016-09-29 03:48:00,1575E-3,5C000000,-0724,0827,12229,030.8,045.6,0.448,740.6,01.18,0.508
2016-09-29 03:49:00,1463E-3,5C000000,-0724,0827,12242,030.8,045.5,0.448,740.6,01.18,0.508
2016-09-29 03:50:00,1555E-3,5C000000,-0724,0828,12240,030.8,045.5,0.449,740.6,01.18,0.508
2016-09-29 03:51:00,1683E-3,5C000000,-0724,0828,12282,030.8,045.5,0.449,740.6,01.18,0.508
2016-09-29 03:52:00,1507E-3,5C000000,-0724,0828,12183,030.7,045.6,0.449,740.6,01.18,0.508
2016-09-29 03:53:00,1644E-3,5C000000,-0724,0828,12191,030.7,045.5,0.448,740.6,01.18,0.508
2016-09-29 03:54:00,1584E-3,5C000000,-0724,0827,12313,030.6,045.6,0.448,740.6,01.18,0.508
2016-09-29 03:55:00,1534E-3,5C000000,-0724,0828,12102,030.6,045.6,0.449,740.6,01.18,0.508
2016-09-29 03:56:00,1678E-3,5C000000,-0724,0827,12130,030.6,045.5,0.449,740.6,01.18,0.508
2016-09-29 03:57:00,1595E-3,5C000000,-0724,0827,12342,030.6,045.5,0.449,740.6,01.18,0.508
2016-09-29 03:58:00,1585E-3,5C000000,-0724,0827,12175,030.6,045.5,0.449,740.6,01.18,0.508
2016-09-29 03:59:00,1713E-3,5C000000,-0724,0827,12256,030.5,045.5,0.448,740.6,01.18,0.508
2016-09-29 04:00:00,1579E-3,5C000000,-0724,0827,12085,030.5,045.5,0.449,740.6,01.18,0.508
2016-09-29 04:01:00,1600E-3,5C000000,-0724,0828,12367,030.5,045.5,0.449,740.6,01.18,0.508
2016-09-29 04:02:00,1553E-3,5C000000,-0724,0828,11106,030.4,045.5,0.449,740.6,01.18,0.508
2016-09-29 04:03:00,1499E-3,5C000000,-0724,0827,12186,030.4,045.5,0.449,740.6,01.18,0.508
2016-09-29 04:04:00,1546E-3,5C000000,-0724,0828,12175,030.4,045.5,0.449,740.6,01.18,0.508
2016-09-29 04:05:00,1634E-3,5C000000,-0724,0827,12201,030.4,045.6,0.450,740.6,01.18,0.508
2016-09-29 04:06:00,1504E-3,5C000000,-0724,0828,12261,030.3,045.5,0.449,740.6,01.18,0.508
2016-09-29 04:07:00,1534E-3,5C000000,-0724,0828,12205,030.4,045.5,0.449,740.6,01.18,0.508
2016-09-29 04:08:00,1611E-3,5C000000,-0724,0827,12200,030.3,045.5,0.449,740.6,01.18,0.508
2016-09-29 04:09:00,1667E-3,5C000000,-0724,0827,12300,030.3,045.5,0.449,740.6,01.18,0.508
2016-09-29 04:10:00,1581E-3,5C000000,-0724,0828,12319,030.3,045.5,0.450,740.6,01.18,0.508
2016-09-29 04:11:00,1603E-3,5C000000,-0724,0828,12109,030.3,045.5,0.450,740.6,01.18,0.508
2016-09-29 04:12:00,1563E-3,5C000000,-0724,0827,12273,030.2,045.5,0.449,740.6,01.18,0.508
2016-09-29 04:13:00,1614E-3,5C000000,-0724,0827,12213,030.2,045.5,0.449,740.6,01.18,0.508
2016-09-29 04:14:00,1503E-3,5C000000,-0724,0828,12067,030.2,045.5,0.449,740.6,01.18,0.508
2016-09-29 04:15:00,1513E-3,5C000000,-0724,0827,12309,030.2,045.5,0.450,740.6,01.18,0.508
2016-09-29 04:16:00,1439E-3,5C000000,-0724,0828,12094,030.2,045.5,0.450,740.6,01.18,0.508
2016-09-29 04:17:00,1619E-3,5C000000,-0724,0827,12337,030.2,045.5,0.450,740.6,01.18,0.508
2016-09-29 04:18:00,1690E-3,5C000000,-0724,0828,12182,030.2,045.5,0.450,740.6,01.18,0.508
2016-09-29 04:19:00,1550E-3,5C000000,-0724,0827,12147,030.2,045.6,0.449,740.6,01.18,0.508
2016-09-29 04:20:00,1631E-3,5C000000,-0724,0827,12184,030.2,045.5,0.449,740.6,01.18,0.508